Вернуться в каталог

ADEOS

АктивенНаукаSSO
NORAD 24277·PAYLOAD·🇯🇵 Japan

Запущен Aug 17, 1996 с Tanegashima Space Center

Loading…

Ближайшие Пролёты (ближайшие 24 часа)

TLE

СвежийSource: Space-Track

Эпоха: Sep 14, 2026, 13:25 UTC

1 24277U 96046A   26257.55907670  .00000046  00000-0  35084-4 0  9992
2 24277  98.7910 312.9500 0001269 158.8739 201.2495 14.30415672568440

Отслеживайте ADEOS в реальном времени с AllMySat

Download on the App Store